This is the latest recevied weather packets stored in our database for station/object DB0WUN-13. If no packets are shown the sender has not sent any weather packets the latest 1 day(s).
| Time | Temp. | Humidity | Pressure | Rain* | Wind** | Luminosity | Snow |
|---|---|---|---|---|---|---|---|
| 1777990410 | 18.89° C | 61% | 1007.4 hPa | 0 mm | 2.68 m/s, 345° | 255 W/m² | - |
| 1777990355 | 18.89° C | 61% | 1007.3 hPa | 0 mm | 2.68 m/s, 321° | 279 W/m² | - |
| 1777990291 | 18.89° C | 61% | 1007.4 hPa | 0 mm | 2.24 m/s, 326° | 288 W/m² | - |
| 1777990233 | 18.89° C | 61% | 1007.4 hPa | 0 mm | 2.24 m/s, 321° | 338 W/m² | - |
| 1777990169 | 18.89° C | 61% | 1007.4 hPa | 0 mm | 1.79 m/s, 330° | 336 W/m² | - |
| 1777990109 | 18.89° C | 62% | 1007.4 hPa | 0 mm | 1.34 m/s, 317° | 283 W/m² | - |
| 1777990047 | 18.89° C | 62% | 1007.4 hPa | 0 mm | 1.34 m/s, 340° | 267 W/m² | - |
| 1777989988 | 18.89° C | 61% | 1007.4 hPa | 0 mm | 1.34 m/s, 317° | 255 W/m² | - |
| 1777989933 | 18.89° C | 62% | 1007.4 hPa | 0 mm | 0.89 m/s, 5° | 255 W/m² | - |
| 1777989866 | 18.89° C | 62% | 1007.4 hPa | 0 mm | 0.89 m/s, 347° | 260 W/m² | - |
| 1777989808 | 18.89° C | 62% | 1007.4 hPa | 0 mm | 0.89 m/s, 7° | 278 W/m² | - |
| 1777989744 | 18.89° C | 62% | 1007.4 hPa | 0 mm | 0.89 m/s, 329° | 320 W/m² | - |
| 1777989685 | 18.89° C | 62% | 1007.5 hPa | 0 mm | 0.89 m/s, 324° | 309 W/m² | - |
| 1777989633 | 18.89° C | 62% | 1007.5 hPa | 0 mm | 0.89 m/s, 323° | 311 W/m² | - |
| 1777989570 | 18.89° C | 62% | 1007.5 hPa | 0 mm | 0.89 m/s, 326° | 283 W/m² | - |
| 1777989508 | 18.89° C | 62% | 1007.5 hPa | 0 mm | 0.89 m/s, 343° | 272 W/m² | - |
| 1777989442 | 18.89° C | 62% | 1007.5 hPa | 0 mm | 0.89 m/s, 21° | 267 W/m² | - |
| 1777989386 | 18.89° C | 62% | 1007.5 hPa | 0 mm | 0.89 m/s, 349° | 264 W/m² | - |
| 1777989324 | 18.89° C | 62% | 1007.6 hPa | 0 mm | 0.89 m/s, 349° | 258 W/m² | - |
| 1777989274 | 18.89° C | 61% | 1007.6 hPa | 0 mm | 0.89 m/s, 329° | 253 W/m² | - |
| 1777989232 | 18.89° C | 61% | 1007.6 hPa | 0 mm | 1.34 m/s, 336° | 246 W/m² | - |
| 1777989191 | 18.89° C | 61% | 1007.6 hPa | 0 mm | 1.34 m/s, 324° | 251 W/m² | - |
| 1777989154 | 18.89° C | 60% | 1007.6 hPa | 0 mm | 0.89 m/s, 3° | 250 W/m² | - |
| 1777989121 | 18.89° C | 60% | 1007.7 hPa | 0 mm | 0.89 m/s, 319° | 267 W/m² | - |
| 1777989069 | 18.89° C | 60% | 1007.7 hPa | 0 mm | 1.34 m/s, 337° | 246 W/m² | - |
* Rain latest hour (hover to see other rain measurements)
** Current wind speed in m/s (hover to see current wind gust speed)